Date String (YYYY-MM-DD hh:mm:ss) UTC,Instrument flags,absolute air pressure of the measurement (hPa),sample flow rate (lpm),inlet stack bypass flow (lpm),air temperature of the measurement (°C),ambient temperature measured by the external sensor (°C),aerosol sample conditioner tube jacket temperature (°C),OPC LED temperature (°C),internal box temperature (°C),relative humidity of the measurement (%),span deviation,mass concentration of particles derived from Lorenz-Mie calculation of OPC scattering (μg/m³),mass concentration of particles derived from Lorenz-Mie calculation of OPC scattering (μg/m³),mass concentration of particles derived from Lorenz-Mie calculation of OPC scattering (μg/m³)
DateTimeUTC,F1_M11,P_M11,Q1_M11,Q2_M11,T1_M11,T2_M11,T3_M11,T4_M11,T5_M11,U1_M11,ZSPAN_M11,X0_M11,X2_M11,X1_M11
2023-12-23 06:00:00,SystemResetWarning,0825.3,5.00,000.00,024.4,023.5,000.0,032.9,025.5,12.2,0000.0,0008.14,0003.60,0003.26
2023-12-23 06:01:00,SystemResetWarning,0825.4,4.98,000.00,024.4,023.4,000.0,032.9,025.5,12.2,0000.0,0008.17,0003.62,0003.27
2023-12-23 06:02:00,SystemResetWarning,0825.3,5.00,000.00,024.3,023.4,000.0,032.9,025.4,12.2,0000.0,0008.60,0003.61,0003.28
2023-12-23 06:03:00,SystemResetWarning,0825.3,5.00,000.00,024.3,023.4,000.0,032.9,025.4,12.2,0000.0,0009.07,0003.60,0003.28
2023-12-23 06:04:00,SystemResetWarning,0825.3,5.01,000.00,024.3,023.4,000.0,032.9,025.4,12.2,0000.0,0009.76,0003.62,0003.29
2023-12-23 06:05:00,SystemResetWarning,0825.3,5.00,000.00,024.3,023.4,000.0,032.8,025.5,12.2,0000.0,0010.52,0003.65,0003.30
2023-12-23 06:06:00,SystemResetWarning,0825.3,5.00,000.00,024.3,023.4,000.0,032.8,025.5,12.3,0000.0,0011.56,0003.68,0003.31
2023-12-23 06:07:00,SystemResetWarning,0825.3,5.00,000.00,024.3,023.4,000.0,032.8,025.6,12.3,0000.0,0011.21,0003.65,0003.30
2023-12-23 06:08:00,SystemResetWarning,0825.3,4.99,000.00,024.3,023.4,000.0,032.8,025.6,12.2,0000.0,0010.61,0003.62,0003.29
2023-12-23 06:09:00,SystemResetWarning,0825.3,5.00,000.00,024.3,023.4,000.0,032.8,025.6,12.2,0000.0,0010.43,0003.61,0003.28
2023-12-23 06:10:00,SystemResetWarning,0825.3,5.00,000.00,024.3,023.4,000.0,032.8,025.6,12.3,0000.0,0010.47,0003.60,0003.27
2023-12-23 06:11:00,SystemResetWarning,0825.2,5.00,000.00,024.3,023.4,000.0,032.8,025.6,12.3,0000.0,0010.18,0003.57,0003.24
2023-12-23 06:12:00,SystemResetWarning,0825.2,5.00,000.00,024.3,023.4,000.0,032.8,025.6,12.3,0000.0,0010.34,0003.53,0003.21
2023-12-23 06:13:00,SystemResetWarning,0825.2,5.00,000.00,024.3,023.4,000.0,032.8,025.7,12.3,0000.0,0009.81,0003.51,0003.19
2023-12-23 06:14:00,SystemResetWarning,0825.3,5.00,000.00,024.3,023.5,000.0,032.8,025.6,12.3,0000.0,0009.50,0003.50,0003.17
2023-12-23 06:15:00,SystemResetWarning,0825.2,5.00,000.00,024.3,023.5,000.0,032.7,025.6,12.3,0000.0,0008.89,0003.51,0003.16
2023-12-23 06:16:00,SystemResetWarning,0825.2,5.00,000.00,024.4,023.5,000.0,032.7,025.6,12.3,0000.0,0008.50,0003.50,0003.16
2023-12-23 06:17:00,SystemResetWarning,0825.1,5.00,000.00,024.4,023.5,000.0,032.7,025.6,12.3,0000.0,0007.57,0003.50,0003.17
2023-12-23 06:18:00,SystemResetWarning,0825.1,5.00,000.00,024.4,023.5,000.0,032.7,025.6,12.3,0000.0,0007.57,0003.55,0003.19
2023-12-23 06:19:00,SystemResetWarning,0825.1,5.01,000.00,024.3,023.5,000.0,032.7,025.6,12.4,0000.0,0007.64,0003.61,0003.22
2023-12-23 06:20:00,SystemResetWarning,0825.1,5.00,000.00,024.3,023.5,000.0,032.7,025.6,12.5,0000.0,0007.72,0003.67,0003.28
2023-12-23 06:21:00,SystemResetWarning,0825.1,5.00,000.00,024.3,023.4,000.0,032.7,025.5,12.5,0000.0,0007.70,0003.74,0003.32
2023-12-23 06:22:00,SystemResetWarning,0825.1,5.00,000.00,024.3,023.4,000.0,032.7,025.5,12.5,0000.0,0007.85,0003.78,0003.37
2023-12-23 06:23:00,SystemResetWarning,0825.0,5.00,000.00,024.3,023.4,000.0,032.7,025.6,12.5,0000.0,0007.85,0003.88,0003.43
2023-12-23 06:24:00,SystemResetWarning,0825.0,5.00,000.00,024.3,023.4,000.0,032.7,025.6,12.5,0000.0,0007.74,0003.97,0003.50
2023-12-23 06:25:00,SystemResetWarning,0825.0,5.00,000.00,024.3,023.3,000.0,032.7,025.6,12.5,0000.0,0007.88,0004.05,0003.58
2023-12-23 06:26:00,SystemResetWarning,0824.9,5.00,000.00,024.3,023.3,000.0,032.7,025.6,12.5,0000.0,0008.05,0004.07,0003.64
2023-12-23 06:27:00,SystemResetWarning,0824.9,5.00,000.00,024.3,023.3,000.0,032.7,025.6,12.5,0000.0,0008.59,0004.12,0003.69
2023-12-23 06:28:00,SystemResetWarning,0824.9,5.00,000.00,024.3,023.3,000.0,032.7,025.6,12.5,0000.0,0008.50,0004.20,0003.77
2023-12-23 06:29:00,SystemResetWarning,0824.9,5.01,000.00,024.3,023.3,000.0,032.6,025.6,12.5,0000.0,0008.66,0004.28,0003.86
2023-12-23 06:30:00,SystemResetWarning,0824.9,5.00,000.00,024.3,023.3,000.0,032.6,025.6,12.5,0000.0,0009.33,0004.39,0003.97
2023-12-23 06:31:00,SystemResetWarning,0824.9,5.00,000.00,024.3,023.3,000.0,032.6,025.6,12.6,0000.0,0010.41,0004.53,0004.09
2023-12-23 06:32:00,SystemResetWarning,0824.9,5.00,000.00,024.3,023.3,000.0,032.6,025.6,12.6,0000.0,0010.76,0004.63,0004.20
2023-12-23 06:33:00,SystemResetWarning,0824.9,5.00,000.00,024.3,023.3,000.0,032.6,025.6,12.6,0000.0,0010.77,0004.74,0004.31
2023-12-23 06:34:00,SystemResetWarning,0824.9,5.00,000.00,024.3,023.3,000.0,032.6,025.6,12.6,0000.0,0011.14,0004.81,0004.38
2023-12-23 06:35:00,SystemResetWarning,0824.9,5.00,000.00,024.3,023.3,000.0,032.6,025.6,12.6,0000.0,0011.78,0004.85,0004.43
2023-12-23 06:36:00,SystemResetWarning,0824.9,5.00,000.00,024.3,023.3,000.0,032.6,025.6,12.6,0000.0,0011.94,0004.89,0004.43
2023-12-23 06:37:00,SystemResetWarning,0824.9,5.00,000.00,024.3,023.3,000.0,032.6,025.6,12.6,0000.0,0011.99,0004.89,0004.43
2023-12-23 06:38:00,SystemResetWarning,0824.9,5.00,000.00,024.3,023.3,000.0,032.6,025.6,12.6,0000.0,0011.60,0004.88,0004.42
2023-12-23 06:39:00,SystemResetWarning,0824.9,5.00,000.00,024.3,023.3,000.0,032.6,025.6,12.6,0000.0,0011.80,0004.81,0004.36
2023-12-23 06:40:00,SystemResetWarning,0824.9,5.01,000.00,024.3,023.3,000.0,032.6,025.6,12.7,0000.0,0011.05,0004.71,0004.28
2023-12-23 06:41:00,SystemResetWarning,0824.9,5.00,000.00,024.3,023.3,000.0,032.6,025.6,12.7,0000.0,0010.38,0004.59,0004.18
2023-12-23 06:42:00,SystemResetWarning,0824.9,4.99,000.00,024.3,023.3,000.0,032.6,025.6,12.6,0000.0,0009.32,0004.43,0004.05
2023-12-23 06:43:00,SystemResetWarning,0824.9,4.99,000.00,024.3,023.3,000.0,032.6,025.6,12.6,0000.0,0008.92,0004.30,0003.94
2023-12-23 06:44:00,SystemResetWarning,0824.9,5.00,000.00,024.3,023.3,000.0,032.6,025.6,12.6,0000.0,0009.23,0004.19,0003.84
2023-12-23 06:45:00,SystemResetWarning,0824.9,5.00,000.00,024.3,023.3,000.0,032.6,025.6,12.6,0000.0,0008.97,0004.10,0003.76
2023-12-23 06:46:00,SystemResetWarning,0824.9,5.00,000.00,024.3,023.4,000.0,032.6,025.6,12.6,0000.0,0008.29,0004.01,0003.69
2023-12-23 06:47:00,SystemResetWarning,0824.9,5.00,000.00,024.3,023.4,000.0,032.6,025.6,12.6,0000.0,0008.02,0003.94,0003.66
2023-12-23 06:48:00,SystemResetWarning,0824.9,5.00,000.00,024.3,023.4,000.0,032.6,025.6,12.6,0000.0,0007.86,0003.93,0003.64
2023-12-23 06:49:00,SystemResetWarning,0824.9,5.00,000.00,024.3,023.4,000.0,032.6,025.6,12.6,0000.0,0007.84,0003.94,0003.62
2023-12-23 06:50:00,SystemResetWarning,0824.9,5.00,000.00,024.2,023.4,000.0,032.6,025.5,12.6,0000.0,0007.69,0003.95,0003.61
2023-12-23 06:51:00,SystemResetWarning,0824.9,5.00,000.00,024.2,023.4,000.0,032.6,025.5,12.7,0000.0,0007.69,0003.94,0003.61
2023-12-23 06:52:00,SystemResetWarning,0824.8,5.01,000.00,024.2,023.3,000.0,032.6,025.4,12.7,0000.0,0007.94,0003.92,0003.59
2023-12-23 06:53:00,SystemResetWarning,0824.8,5.00,000.00,024.1,023.3,000.0,032.6,025.3,12.7,0000.0,0008.07,0003.92,0003.57
2023-12-23 06:54:00,SystemResetWarning,0824.7,5.00,000.00,024.1,023.3,000.0,032.6,025.3,12.7,0000.0,0008.08,0003.93,0003.56
2023-12-23 06:55:00,SystemResetWarning,0824.8,5.00,000.00,024.1,023.3,000.0,032.6,025.2,12.7,0000.0,0007.64,0003.91,0003.56
2023-12-23 06:56:00,SystemResetWarning,0824.7,5.00,000.00,024.1,023.2,000.0,032.5,025.2,12.8,0000.0,0007.53,0003.92,0003.57
2023-12-23 06:57:00,SystemResetWarning,0824.7,5.00,000.00,024.0,023.2,000.0,032.5,025.2,12.8,0000.0,0007.65,0003.97,0003.60
2023-12-23 06:58:00,SystemResetWarning,0824.7,5.00,000.00,024.0,023.2,000.0,032.5,025.1,12.8,0000.0,0007.84,0004.06,0003.66
2023-12-23 06:59:00,SystemResetWarning,0824.7,5.00,000.00,024.0,023.1,000.0,032.5,025.1,12.8,0000.0,0007.97,0004.15,0003.74
